Rochester, NH

3:46 AM EST on February 08, 2016 (GMT -0500)
Skyhaven

Weather History for KDAW - March, 2013

Change the Weather History Date:

Sunday, March 10, 2013

  Actual Average (KSFM) Record (KSFM)
Temperature  
Mean Temperature 34 °F -  
Max Temperature 42 °F 36 °F 57 °F (2002)
Min Temperature 25 °F 19 °F -9 °F (2005)
Degree Days  
Heating Degree Days 32    
Moisture  
Dew Point 26 °F    
Average Humidity 75    
Maximum Humidity 92    
Minimum Humidity 58    
Precipitation  
Precipitation 0.00 in - - ()
Sea Level Pressure  
Sea Level Pressure 30.35 in    
Wind  
Wind Speed 5 mph (SSE)    
Max Wind Speed 8 mph    
Max Gust Speed -    
Visibility 10 miles    
Events      
Averages and records for this station are not official NWS values.
T = Trace of Precipitation, MM = Missing Value Source: NWS Daily Summary

Daily Weather History Graph

Daily Weather History Graph

Search for Another Location

Airport or City:

Trip Planner

Search our weather history database for the weather conditions in past years. The results will help you decide how hot, cold, wet, or windy it might be!

Date:

Astronomy

Mar. 10, 2013 Rise Set
Actual Time 7:04 AM EDT 6:44 PM EDT
Civil Twilight 6:35 AM EDT 7:12 PM EDT
Nautical Twilight 6:02 AM EDT 7:45 PM EDT
Astronomical Twilight 5:29 AM EDT 8:19 PM EDT
Moon 6:03 AM EDT (3/10) 5:48 PM EDT (3/10)
Length of Visible Light 12h 36m
Length of Day
11h 40m
Waning Crescent, 2% of the Moon is Illuminated
Mar 10
Waning Crescent
Mar 11
New
Mar 19
First Quarter
Mar 27
Full
Apr 3
Last Quarter

Hourly Weather History & Observations

Time (EDT) Temp. Windchill Dew Point Humidity Pressure Visibility Wind Dir Wind Speed Gust Speed Precip Events Conditions
1:51 AM 25.0 °F 16.3 °F 23.0 °F 92% 30.36 in 10.0 mi NW 8.1 mph - N/A   Clear
3:51 AM 25.0 °F 18.1 °F 23.0 °F 92% 30.36 in 10.0 mi NW 5.8 mph - N/A   Clear
4:51 AM 25.0 °F 19.3 °F 23.0 °F 92% 30.37 in 10.0 mi NW 4.6 mph - N/A   Clear
5:51 AM 26.1 °F 21.9 °F 23.0 °F 88% 30.37 in 10.0 mi NNW 3.5 mph - N/A   Clear
6:51 AM 25.0 °F - 21.9 °F 88% 30.38 in 10.0 mi Calm Calm - N/A   Clear
8:51 AM 28.0 °F 22.8 °F 23.0 °F 81% 30.41 in 10.0 mi NW 4.6 mph - N/A   Clear
9:51 AM 33.1 °F - 26.1 °F 75% 30.41 in 10.0 mi Calm Calm - N/A   Clear
10:51 AM 36.0 °F 33.3 °F 27.0 °F 70% 30.41 in 10.0 mi ESE 3.5 mph - N/A   Clear
11:51 AM 37.9 °F - 26.1 °F 62% 30.39 in 10.0 mi Calm Calm - N/A   Clear
12:51 PM 39.9 °F 36.7 °F 26.1 °F 58% 30.38 in 10.0 mi SE 4.6 mph - N/A   Clear
1:51 PM 42.1 °F 39.2 °F 28.0 °F 58% 30.36 in 10.0 mi Variable 4.6 mph - N/A   Clear
2:51 PM 42.1 °F 37.1 °F 28.0 °F 58% 30.35 in 10.0 mi SSE 8.1 mph - N/A   Clear
3:51 PM 41.0 °F 35.8 °F 28.0 °F 60% 30.33 in 10.0 mi SSE 8.1 mph - N/A   Clear
4:51 PM 39.9 °F 35.1 °F 27.0 °F 60% 30.33 in 10.0 mi South 6.9 mph - N/A   Clear
5:51 PM 37.9 °F 33.5 °F 28.0 °F 68% 30.33 in 10.0 mi SSE 5.8 mph - N/A   Clear
6:51 PM 35.1 °F 29.3 °F 28.0 °F 76% 30.33 in 10.0 mi SE 6.9 mph - N/A   Clear
7:51 PM 34.0 °F 31.0 °F 28.0 °F 79% 30.33 in 10.0 mi SSE 3.5 mph - N/A   Clear
9:51 PM 34.0 °F 31.0 °F 28.9 °F 82% 30.31 in 10.0 mi SSE 3.5 mph - N/A   Overcast
10:51 PM 34.0 °F - 28.9 °F 82% 30.32 in 10.0 mi Calm Calm - N/A   Clear
11:51 PM 34.0 °F - 28.9 °F 82% 30.30 in 10.0 mi Calm Calm - N/A   Partly Cloudy
12:51 AM 34.0 °F - 28.9 °F 82% 30.30 in 10.0 mi Calm Calm - N/A   Clear